KB9YVI-11 Weather Reports


time (UTC)temp
F
wind
direction
speed
knots
gust
knots
rain 1hr
in
rain 24hr
in
rain mn
in
humidity
%
barometer
mb
20260504035535 59 187 0.9 7.0 0.00 0.00 0.00 82
20260504035035 59 248 2.6 7.0 0.00 0.00 0.00 82
20260504034535 59 199 2.6 9.6 0.00 0.00 0.00 83
20260504033032 58 88 3.5 8.7 0.00 0.00 0.00 83
20260504032535 58 192 0.9 10.4 0.00 0.00 0.00 83
20260504032035 58 150 0.0 7.0 0.00 0.00 0.00 83
20260504031535 58 144 0.0 7.0 0.00 0.00 0.00 83
20260504031035 58 195 0.0 6.1 0.00 0.00 0.00 83
20260504025035 58 198 2.6 7.0 0.00 0.00 0.00 82
20260504024535 58 167 0.0 7.0 0.00 0.00 0.00 82
20260504024035 58 205 3.5 7.8 0.00 0.00 0.00 82
20260504023033 58 194 5.2 9.6 0.00 0.00 0.00 82
20260504021534 58 164 4.3 8.7 0.00 0.00 0.00 82
20260504021034 59 142 4.3 6.1 0.00 0.00 0.00 82
20260504020534 59 198 0.9 7.8 0.00 0.00 0.00 81
20260504015534 59 203 2.6 8.7 0.00 0.00 0.00 80
20260504015034 59 230 0.9 7.0 0.00 0.00 0.00 80
20260504014534 59 156 3.5 5.2 0.00 0.00 0.00 80
20260504014034 59 160 0.0 7.0 0.00 0.00 0.00 79
20260504013534 59 188 4.3 7.0 0.00 0.00 0.00 79
20260504013033 59 213 0.9 9.6 0.00 0.00 0.00 79
20260504012534 59 215 0.9 5.2 0.00 0.00 0.00 79
20260504011534 59 222 0.9 7.0 0.00 0.00 0.00 79
20260504011034 60 195 1.7 7.0 0.00 0.00 0.00 79
20260504010534 60 210 1.7 7.8 0.00 0.00 0.00 79
20260504010034 60 184 3.5 7.0 0.00 0.00 0.00 79
20260504005534 60 181 0.9 6.1 0.00 0.00 0.00 79
20260504005034 60 196 4.3 10.4 0.00 0.00 0.00 79
20260504004534 60 172 0.0 11.3 0.00 0.00 0.00 78
20260504004034 60 191 0.9 11.3 0.00 0.00 0.00 79
20260504003033 60 4 0.0 13.0 0.00 0.00 0.00 80
20260504002534 60 140 3.5 7.8 0.00 0.00 0.00 80
20260504002034 61 185 1.7 7.8 0.00 0.00 0.00 80
20260504001534 61 184 4.3 9.6 0.00 0.00 0.00 79
20260504001034 61 63 0.0 12.2 0.00 0.00 0.00 78
20260504000534 61 209 0.0 8.7 0.00 0.00 0.00 78
20260504000034 61 215 0.0 9.6 0.00 0.00 0.00 77
20260503235534 61 181 0.0 10.4 0.00 0.00 0.00 77
20260503235034 61 196 2.6 9.6 0.00 0.00 0.00 77
20260503234534 61 187 3.5 7.8 0.00 0.00 0.00 77
20260503234034 61 188 4.3 7.0 0.00 0.00 0.00 76
20260503233534 61 192 1.7 6.1 0.00 0.00 0.00 76
20260503233033 61 219 5.2 7.0 0.00 0.00 0.00 76
20260503230535 62 222 4.3 7.0 0.00 0.00 0.00 75
20260503230035 62 202 1.7 7.8 0.00 0.00 0.00 74
20260503225535 62 220 2.6 8.7 0.00 0.00 0.00 74
20260503224535 62 195 0.0 7.0 0.00 0.00 0.00 75
20260503223535 62 156 3.5 10.4 0.00 0.00 0.00 74
20260503223033 62 358 7.0 10.4 0.00 0.00 0.00 73
20260503222535 62 126 1.7 11.3 0.00 0.00 0.00 73
20260503221535 62 5 10.4 10.4 0.00 0.00 0.00 73
20260503221035 62 248 0.9 9.6 0.00 0.00 0.00 72
20260503215535 62 15 7.0 12.2 0.00 0.00 0.00 73
20260503214035 62 160 3.5 15.6 0.00 0.00 0.00 72
20260503213034 61 358 7.0 13.0 0.00 0.00 0.00 73
20260503212035 61 18 11.3 12.2 0.00 0.00 0.00 73
20260503211535 61 195 0.0 13.0 0.00 0.00 0.00 74
20260503211035 61 88 11.3 13.0 0.00 0.00 0.00 73
20260503210535 61 233 1.7 11.3 0.00 0.00 0.00 74
20260503210035 61 43 6.1 10.4 0.00 0.00 0.00 73
20260503205535 61 12 6.1 13.9 0.00 0.00 0.00 72
20260503204535 61 226 3.5 10.4 0.00 0.00 0.00 75
20260503204035 61 25 5.2 13.0 0.00 0.00 0.00 73
20260503203535 61 205 4.3 13.0 0.00 0.00 0.00 73
20260503203034 62 358 7.8 14.8 0.00 0.00 0.00 73
20260503202535 62 42 5.2 15.6 0.00 0.00 0.00 71
20260503202035 62 203 8.7 11.3 0.00 0.00 0.00 73
20260503201535 62 189 0.9 8.7 0.00 0.00 0.00 73
20260503201035 62 217 6.1 10.4 0.00 0.00 0.00 72
20260503200535 62 258 5.2 13.0 0.00 0.00 0.00 71
20260503200035 63 212 7.8 13.9 0.00 0.00 0.00 70
20260503195035 64 26 12.2 19.1 0.00 0.00 0.00 69
20260503194535 64 226 6.1 12.2 0.00 0.00 0.00 71
20260503194035 63 358 10.4 12.2 0.00 0.00 0.00 71
20260503193535 63 45 7.0 15.6 0.00 0.00 0.00 72
20260503193034 63 345 13.9 16.5 0.00 0.00 0.00 71
20260503192535 62 206 3.5 17.4 0.00 0.00 0.00 72
20260503192035 63 11 10.4 20.9 0.00 0.00 0.00 68
20260503191535 63 219 7.8 17.4 0.00 0.00 0.00 69
20260503191035 63 60 13.9 19.1 0.00 0.00 0.00 72
20260503190535 63 163 7.0 13.9 0.00 0.00 0.00 71
20260503185535 62 156 3.5 14.8 0.00 0.00 0.00 72
20260503184537 62 247 2.6 12.2 0.00 0.00 0.00 74
20260503184035 62 11 8.7 15.6 0.00 0.00 0.00 72
20260503183535 62 229 3.5 16.5 0.00 0.00 0.00 72
20260503183034 62 74 13.0 17.4 0.00 0.00 0.00 71
20260503181035 61 144 7.8 15.6 0.00 0.00 0.00 72
20260503180535 61 14 8.7 18.2 0.00 0.00 0.00 71
20260503180036 61 220 4.3 15.6 0.00 0.00 0.00 74
20260503174536 60 78 7.8 16.5 0.00 0.00 0.00 72
20260503174036 60 172 7.0 13.9 0.00 0.00 0.00 74
20260503173536 60 227 6.1 16.5 0.00 0.00 0.00 73
20260503173034 61 36 11.3 17.4 0.00 0.00 0.00 71
20260503172536 61 232 4.3 19.1 0.00 0.00 0.00 71
20260503172036 60 265 2.6 12.2 0.00 0.00 0.00 73
20260503171036 60 355 10.4 15.6 0.00 0.00 0.00 70
20260503170536 60 222 7.8 13.9 0.00 0.00 0.00 73
20260503150536 56 358 0.0 14.8 0.00 0.00 0.00 73
20260503130536 47 196 6.1 13.0 0.00 0.00 0.00 88
20260503110537 39 229 1.7 6.1 0.00 0.00 0.00 100
20260503081037 34 358 0.0 0.0 0.00 0.00 0.00 100
20260503072537 34 358 0.0 0.0 0.00 0.00 0.00 100
20260503072037 34 358 0.0 0.0 0.00 0.00 0.00 100
20260503071537 34 358 0.0 0.0 0.00 0.00 0.00 100
20260503071037 35 358 0.0 0.0 0.00 0.00 0.00 100
20260503070537 35 358 0.0 0.0 0.00 0.00 0.00 100
20260503055038 36 358 0.0 0.0 0.00 0.00 0.00 100
20260503054038 36 358 0.0 0.0 0.00 0.00 0.00 100
20260503053036 36 358 0.0 0.0 0.00 0.00 0.00 100
20260503052038 36 358 0.0 0.0 0.00 0.00 0.00 100
20260503051038 36 358 0.0 0.0 0.00 0.00 0.00 100
20260503050538 36 358 0.0 0.0 0.00 0.00 0.00 100
20260503050038 36 358 0.0 0.0 0.00 0.00 0.00 100
20260503045538 36 358 0.0 0.0 0.00 0.00 0.00 100
20260503045038 37 358 0.0 0.0 0.00 0.00 0.00 100
20260503043538 37 358 0.0 0.0 0.00 0.00 0.00 100
20260503043037 37 358 0.0 0.0 0.00 0.00 0.00 100
20260503042538 37 358 0.0 0.0 0.00 0.00 0.00 100
20260503042038 37 358 0.0 0.0 0.00 0.00 0.00 100
20260503041038 38 358 0.0 0.0 0.00 0.00 0.00 100